ASP655 KPSP-KLAX

Flight info

Callsign ASP655
Flight time 0h 41m
Altitude 12000
Route PSP V388 LENHO SEAVU
Aircraft C25B/M-SDE2E3FGHRWXY/LB1

Departure

Time 2026-04-22 14:50
Airport Palm Springs International Airport (KPSP)

Arrival

Time 2026-04-22 15:31
Airport Los Angeles International Airport (KLAX)
Time Latitude Longitude Altitude Speed Heading
2026-04-22 14:35 33.82570 -116.50975 422 ft 0 kts 109°
2026-04-22 14:45 33.82569 -116.50975 427 ft 2 kts 109°
2026-04-22 14:46 33.82545 -116.50907 422 ft 15 kts 112°
2026-04-22 14:46 33.82535 -116.50774 420 ft 17 kts 91°
2026-04-22 14:46 33.82520 -116.50657 418 ft 10 kts 137°
2026-04-22 14:46 33.82511 -116.50619 418 ft 11 kts 32°
2026-04-22 14:47 33.82520 -116.50572 416 ft 7 kts 142°
2026-04-22 14:47 33.82468 -116.50526 416 ft 11 kts 143°
2026-04-22 14:47 33.82356 -116.50428 415 ft 27 kts 143°
2026-04-22 14:47 33.82200 -116.50288 408 ft 29 kts 143°
2026-04-22 14:48 33.82039 -116.50145 405 ft 29 kts 143°
2026-04-22 14:48 33.81891 -116.50014 406 ft 18 kts 143°
2026-04-22 14:48 33.81853 -116.49920 407 ft 9 kts 90°
2026-04-22 14:48 33.81852 -116.49907 407 ft 0 kts 90°
2026-04-22 14:49 33.81853 -116.49835 407 ft 13 kts 82°
2026-04-22 14:49 33.81899 -116.49814 406 ft 10 kts 321°
2026-04-22 14:49 33.82197 -116.50080 406 ft 105 kts 323°
2026-04-22 14:49 33.82950 -116.50772 832 ft 160 kts 322°
2026-04-22 14:50 33.84003 -116.51488 1602 ft 194 kts 347°
2026-04-22 14:50 33.85404 -116.51273 2493 ft 219 kts 25°
2026-04-22 14:50 33.86517 -116.49965 3458 ft 235 kts 62°
2026-04-22 14:50 33.86796 -116.48012 4503 ft 245 kts 97°
2026-04-22 14:51 33.86104 -116.46137 5574 ft 250 kts 127°
2026-04-22 14:51 33.85023 -116.44518 6776 ft 247 kts 130°
2026-04-22 14:51 33.83913 -116.42908 7794 ft 253 kts 131°
2026-04-22 14:51 33.82777 -116.41252 8764 ft 260 kts 131°
2026-04-22 14:52 33.81625 -116.39542 9710 ft 266 kts 131°
2026-04-22 14:52 33.80474 -116.37797 10597 ft 273 kts 131°
2026-04-22 14:52 33.79291 -116.35976 11446 ft 280 kts 131°
2026-04-22 14:52 33.78079 -116.34072 11999 ft 299 kts 131°
2026-04-22 14:53 33.76769 -116.32030 12012 ft 316 kts 134°
2026-04-22 14:53 33.75486 -116.29825 12002 ft 332 kts 116°
2026-04-22 14:53 33.75075 -116.27048 11998 ft 346 kts 88°
2026-04-22 14:53 33.75663 -116.24235 12000 ft 350 kts 63°
2026-04-22 14:54 33.77087 -116.21894 11997 ft 347 kts 37°
2026-04-22 14:54 33.79191 -116.20598 11997 ft 338 kts
2026-04-22 14:54 33.81467 -116.20682 11999 ft 324 kts 340°
2026-04-22 14:54 33.83419 -116.21925 12005 ft 315 kts 317°
2026-04-22 14:55 33.84824 -116.23889 12009 ft 309 kts 296°
2026-04-22 14:55 33.85510 -116.26309 12010 ft 306 kts 277°
2026-04-22 14:55 33.85670 -116.28859 12015 ft 306 kts 272°
2026-04-22 14:55 33.85829 -116.31389 12018 ft 308 kts 275°
2026-04-22 14:56 33.86098 -116.33943 12020 ft 308 kts 277°
2026-04-22 14:56 33.86373 -116.36494 12018 ft 308 kts 276°
2026-04-22 14:56 33.86628 -116.39056 12015 ft 309 kts 276°
2026-04-22 14:56 33.86844 -116.41333 12018 ft 309 kts 275°
2026-04-22 14:57 33.86925 -116.42180 12006 ft 308 kts 276°
2026-04-22 14:57 33.87444 -116.44685 12004 ft 309 kts 287°
2026-04-22 14:57 33.88095 -116.47153 12004 ft 310 kts 284°
2026-04-22 14:57 33.88679 -116.49615 12005 ft 310 kts 285°
2026-04-22 14:58 33.89322 -116.52098 12006 ft 311 kts 285°
2026-04-22 14:58 33.89956 -116.54583 12008 ft 311 kts 285°
2026-04-22 14:58 33.90592 -116.57072 12007 ft 311 kts 285°
2026-04-22 14:58 33.91219 -116.59558 12008 ft 311 kts 285°
2026-04-22 14:59 33.91845 -116.62048 12011 ft 310 kts 285°
2026-04-22 14:59 33.92482 -116.64537 12012 ft 311 kts 285°
2026-04-22 14:59 33.93108 -116.67023 12021 ft 311 kts 285°
2026-04-22 14:59 33.93735 -116.69519 12031 ft 311 kts 285°
2026-04-22 15:00 33.94366 -116.72008 12033 ft 309 kts 284°
2026-04-22 15:00 33.94744 -116.74544 12041 ft 308 kts 274°
2026-04-22 15:00 33.94769 -116.77124 12049 ft 309 kts 266°
2026-04-22 15:00 33.94655 -116.79710 12058 ft 308 kts 268°
2026-04-22 15:01 33.94596 -116.82261 12059 ft 308 kts 268°
2026-04-22 15:01 33.94503 -116.84848 12067 ft 308 kts 267°
2026-04-22 15:01 33.94415 -116.87426 12069 ft 307 kts 267°
2026-04-22 15:01 33.94318 -116.90009 12076 ft 308 kts 267°
2026-04-22 15:02 33.94234 -116.92595 12075 ft 309 kts 268°
2026-04-22 15:02 33.94145 -116.95144 12086 ft 309 kts 267°
2026-04-22 15:02 33.94051 -116.97727 12089 ft 308 kts 268°
2026-04-22 15:02 33.93962 -117.00307 12090 ft 309 kts 268°
2026-04-22 15:03 33.93871 -117.02900 12090 ft 309 kts 267°
2026-04-22 15:03 33.93776 -117.05487 12089 ft 309 kts 267°
2026-04-22 15:03 33.93684 -117.08071 12089 ft 309 kts 267°
2026-04-22 15:03 33.93591 -117.10656 12084 ft 309 kts 268°
2026-04-22 15:04 33.93498 -117.13237 12087 ft 309 kts 268°
2026-04-22 15:04 33.93402 -117.15818 12086 ft 308 kts 268°
2026-04-22 15:04 33.93307 -117.18390 12088 ft 308 kts 267°
2026-04-22 15:04 33.93183 -117.20971 12027 ft 310 kts 267°
2026-04-22 15:05 33.93071 -117.23577 11988 ft 312 kts 267°
2026-04-22 15:05 33.92957 -117.26190 11984 ft 312 kts 267°
2026-04-22 15:05 33.92847 -117.28807 11988 ft 312 kts 268°
2026-04-22 15:05 33.92730 -117.31416 11981 ft 311 kts 267°
2026-04-22 15:06 33.92669 -117.33137 11984 ft 310 kts 269°
2026-04-22 15:06 33.93043 -117.36568 11988 ft 310 kts 282°
2026-04-22 15:06 33.93454 -117.38211 11993 ft 310 kts 289°
2026-04-22 15:06 33.94318 -117.40590 11999 ft 309 kts 291°
2026-04-22 15:07 33.95399 -117.43709 11998 ft 299 kts 291°
2026-04-22 15:07 33.96216 -117.45971 11998 ft 291 kts 291°
2026-04-22 15:07 33.97008 -117.48219 11999 ft 293 kts 290°
2026-04-22 15:07 33.97546 -117.50588 11999 ft 294 kts 279°
2026-04-22 15:08 33.97801 -117.52228 11998 ft 296 kts 281°
2026-04-22 15:08 33.98269 -117.54620 12010 ft 297 kts 282°
2026-04-22 15:08 33.98710 -117.57057 12011 ft 298 kts 280°
2026-04-22 15:08 33.99133 -117.59495 12012 ft 297 kts 281°
2026-04-22 15:09 33.99558 -117.61914 11972 ft 294 kts 281°
2026-04-22 15:09 33.99988 -117.64335 11673 ft 294 kts 281°
2026-04-22 15:09 34.00409 -117.66724 11305 ft 288 kts 280°
2026-04-22 15:09 34.00547 -117.69110 10928 ft 285 kts 269°
2026-04-22 15:10 34.00382 -117.71477 10554 ft 281 kts 263°
2026-04-22 15:10 34.00145 -117.73777 10195 ft 272 kts 264°
2026-04-22 15:10 33.99940 -117.76021 9849 ft 269 kts 264°
2026-04-22 15:10 33.99712 -117.78260 9498 ft 269 kts 264°
2026-04-22 15:11 33.99502 -117.80473 9152 ft 269 kts 264°
2026-04-22 15:11 33.99281 -117.82718 8794 ft 270 kts 264°
2026-04-22 15:11 33.99058 -117.84968 8446 ft 271 kts 264°
2026-04-22 15:11 33.98844 -117.87227 8090 ft 270 kts 264°
2026-04-22 15:12 33.98622 -117.89470 7738 ft 269 kts 263°
2026-04-22 15:12 33.98418 -117.91695 7533 ft 263 kts 265°
2026-04-22 15:12 33.98310 -117.93884 7235 ft 261 kts 266°
2026-04-22 15:12 33.98104 -117.96066 6890 ft 263 kts 262°
2026-04-22 15:13 33.97848 -117.98251 6540 ft 263 kts 262°
2026-04-22 15:13 33.97621 -118.00425 6192 ft 264 kts 263°
2026-04-22 15:13 33.97416 -118.02630 5841 ft 265 kts 263°
2026-04-22 15:13 33.97165 -118.04838 5487 ft 265 kts 262°
2026-04-22 15:14 33.96955 -118.07038 5135 ft 262 kts 264°
2026-04-22 15:14 33.96729 -118.09210 4787 ft 258 kts 262°
2026-04-22 15:14 33.96499 -118.11311 4451 ft 244 kts 263°
2026-04-22 15:14 33.96319 -118.13274 4136 ft 228 kts 263°
2026-04-22 15:15 33.96110 -118.15116 3834 ft 216 kts 262°
2026-04-22 15:15 33.95948 -118.16877 3557 ft 207 kts 263°
2026-04-22 15:15 33.95760 -118.18539 3298 ft 196 kts 262°
2026-04-22 15:15 33.95610 -118.20096 3043 ft 179 kts 264°
2026-04-22 15:16 33.95457 -118.21527 2812 ft 167 kts 261°
2026-04-22 15:16 33.95320 -118.22911 2592 ft 167 kts 264°
2026-04-22 15:16 33.95177 -118.24289 2372 ft 164 kts 261°
2026-04-22 15:16 33.95032 -118.25641 2156 ft 162 kts 263°
2026-04-22 15:17 33.94906 -118.26984 1943 ft 161 kts 263°
2026-04-22 15:17 33.94762 -118.28285 1755 ft 143 kts 261°
2026-04-22 15:17 33.94645 -118.29371 1561 ft 121 kts 264°
2026-04-22 15:17 33.94564 -118.30327 1403 ft 111 kts 263°
2026-04-22 15:18 33.94450 -118.31256 1256 ft 112 kts 263°
2026-04-22 15:18 33.94357 -118.32179 1114 ft 111 kts 263°
2026-04-22 15:18 33.94266 -118.33100 976 ft 111 kts 263°
2026-04-22 15:18 33.94175 -118.34008 827 ft 111 kts 263°
2026-04-22 15:19 33.94083 -118.34934 674 ft 111 kts 262°
2026-04-22 15:19 33.93979 -118.35854 528 ft 111 kts 263°
2026-04-22 15:19 33.93883 -118.36769 382 ft 110 kts 265°
2026-04-22 15:19 33.93796 -118.37681 235 ft 110 kts 264°
2026-04-22 15:20 33.93699 -118.38648 278 ft 140 kts 264°
2026-04-22 15:20 33.93542 -118.40122 885 ft 195 kts 263°
2026-04-22 15:20 33.93352 -118.41778 1773 ft 201 kts 262°
2026-04-22 15:20 33.93146 -118.43450 2725 ft 203 kts 262°
2026-04-22 15:21 33.92937 -118.45108 3653 ft 202 kts 262°
2026-04-22 15:21 33.92720 -118.46774 4615 ft 200 kts 261°
2026-04-22 15:21 33.92503 -118.48500 5102 ft 226 kts 262°
2026-04-22 15:21 33.92207 -118.50385 5071 ft 232 kts 251°
2026-04-22 15:22 33.91191 -118.51872 5039 ft 238 kts 213°
2026-04-22 15:22 33.89583 -118.52314 5032 ft 243 kts 177°
2026-04-22 15:22 33.88016 -118.51584 5021 ft 248 kts 144°
2026-04-22 15:22 33.86939 -118.49956 4967 ft 251 kts 120°
2026-04-22 15:23 33.86098 -118.48125 4983 ft 250 kts 120°
2026-04-22 15:23 33.85264 -118.46309 5053 ft 247 kts 120°
2026-04-22 15:23 33.84409 -118.44538 5043 ft 248 kts 121°
2026-04-22 15:23 33.83525 -118.42747 5038 ft 249 kts 121°
2026-04-22 15:24 33.82643 -118.40940 5002 ft 251 kts 121°
2026-04-22 15:24 33.81772 -118.39125 4992 ft 251 kts 120°
2026-04-22 15:24 33.80983 -118.37255 4863 ft 250 kts 110°
2026-04-22 15:24 33.80861 -118.35202 4629 ft 248 kts 79°
2026-04-22 15:25 33.81595 -118.33303 4106 ft 256 kts 58°
2026-04-22 15:25 33.82510 -118.31488 3826 ft 249 kts 58°
2026-04-22 15:25 33.83378 -118.29754 3613 ft 241 kts 58°
2026-04-22 15:25 33.84245 -118.28083 3485 ft 231 kts 57°
2026-04-22 15:26 33.85205 -118.26587 3361 ft 221 kts 44°
2026-04-22 15:26 33.86466 -118.25578 3111 ft 219 kts 21°
2026-04-22 15:26 33.87946 -118.25308 2880 ft 213 kts 356°
2026-04-22 15:26 33.89420 -118.25550 2513 ft 215 kts 349°
2026-04-22 15:27 33.90879 -118.25876 2243 ft 209 kts 349°
2026-04-22 15:27 33.92237 -118.26212 2130 ft 186 kts 348°
2026-04-22 15:27 33.93437 -118.26519 2010 ft 172 kts 348°
2026-04-22 15:27 33.94569 -118.26835 1892 ft 161 kts 346°
2026-04-22 15:28 33.95331 -118.27492 2022 ft 128 kts 269°
2026-04-22 15:28 33.95011 -118.28457 1798 ft 126 kts 249°
2026-04-22 15:28 33.94739 -118.29455 1565 ft 125 kts 255°
2026-04-22 15:28 33.94562 -118.30462 1388 ft 120 kts 260°
2026-04-22 15:29 33.94443 -118.31442 1225 ft 116 kts 262°
2026-04-22 15:29 33.94344 -118.32396 1064 ft 113 kts 263°
2026-04-22 15:29 33.94252 -118.33331 921 ft 111 kts 263°
2026-04-22 15:30 33.94060 -118.35157 641 ft 109 kts 263°
2026-04-22 15:30 33.93967 -118.36051 496 ft 109 kts 263°
2026-04-22 15:30 33.93868 -118.36961 349 ft 109 kts 264°
2026-04-22 15:30 33.93779 -118.37857 222 ft 107 kts 264°
2026-04-22 15:31 33.93691 -118.38735 102 ft 100 kts 264°
2026-04-22 15:31 33.93615 -118.39490 91 ft 81 kts 263°
2026-04-22 15:31 33.93559 -118.39977 91 ft 28 kts 258°
2026-04-22 15:31 33.93496 -118.40182 89 ft 18 kts 232°
2026-04-22 15:32 33.93443 -118.40199 88 ft 0 kts 147°
2026-04-22 15:33 33.93439 -118.40195 88 ft 7 kts 144°
2026-04-22 15:34 33.93428 -118.40086 88 ft 16 kts 84°
2026-04-22 15:34 33.93443 -118.39940 90 ft 19 kts 83°
2026-04-22 15:34 33.93441 -118.39820 88 ft 8 kts 155°
2026-04-22 15:34 33.93386 -118.39825 88 ft 5 kts 250°
2026-04-22 15:35 33.93382 -118.39862 88 ft 8 kts 265°
2026-04-22 15:35 33.93359 -118.39915 88 ft 3 kts 167°
2026-04-22 15:35 33.93356 -118.39914 88 ft 0 kts 171°